Weather History for KRQB - November, 2011

Change the Weather History Date:

Friday, November 4, 2011

  Actual Average Record
Temperature  
Mean Temperature 36 °F -  
Max Temperature 50 °F 47 °F 69 °F (2008)
Min Temperature 23 °F 32 °F 18 °F (1991)
Degree Days  
Heating Degree Days 28    
Moisture  
Dew Point 30 °F    
Average Humidity 84    
Maximum Humidity 100    
Minimum Humidity 50    
Precipitation  
Precipitation 0.00 in - - ()
Sea Level Pressure  
Sea Level Pressure 30.28 in    
Wind  
Wind Speed 1 mph (SE)    
Max Wind Speed 8 mph    
Max Gust Speed -    
Visibility 10 miles    
Events      
Averages and records for this station are not official NWS values.
T = Trace of Precipitation, MM = Missing Value Source: NWS Daily Summary

Daily Weather History Graph

Daily Weather History Graph

Search for Another Location

Airport or City:

Trip Planner

Search our weather history database for the weather conditions in past years. The results will help you decide how hot, cold, wet, or windy it might be!

Date:

Astronomy

Nov. 04, 2011 Rise Set
Actual Time 8:21 AM EDT 6:29 PM EDT
Civil Twilight 7:51 AM EDT 6:59 PM EDT
Nautical Twilight 7:17 AM EDT 7:33 PM EDT
Astronomical Twilight 6:43 AM EDT 8:06 PM EDT
Moon 3:29 PM EDT (11/4) 2:22 AM EDT (11/4)
Length of Visible Light 11h 07m
Length of Day
10h 07m
Waxing Gibbous, 69% of the Moon is Illuminated
Nov 4
Waxing Gibbous
Nov 10
Full
Nov 18
Last Quarter
Nov 25
New
Dec 2
First Quarter

Hourly Weather History & Observations

Time (EDT) Temp. Windchill Dew Point Humidity Pressure Visibility Wind Dir Wind Speed Gust Speed Precip Events Conditions
12:15 AM 30.2 °F - 30.2 °F 100% 30.21 in 10.0 mi Calm Calm - N/A   Clear
12:54 AM 30.2 °F 26.7 °F 30.2 °F 100% 30.21 in 10.0 mi North 3.5 mph - N/A   Clear
1:15 AM 30.2 °F - 30.2 °F 100% 30.22 in 10.0 mi Calm Calm - N/A   Clear
1:35 AM 28.4 °F - 28.4 °F 100% 30.23 in 10.0 mi Calm Calm - N/A   Clear
1:54 AM 28.4 °F - 28.4 °F 100% 30.23 in 10.0 mi Calm Calm - N/A   Clear
2:15 AM 28.4 °F - 28.4 °F 100% 30.22 in 10.0 mi Calm Calm - N/A   Clear
2:35 AM 28.4 °F - 28.4 °F 100% 30.22 in 10.0 mi Calm Calm - N/A   Clear
2:54 AM 28.4 °F - 28.4 °F 100% 30.22 in 10.0 mi Calm Calm - N/A   Clear
3:15 AM 28.4 °F - 28.4 °F 100% 30.22 in 10.0 mi Calm Calm - N/A   Clear
3:34 AM 26.6 °F - 26.6 °F 100% 30.23 in 10.0 mi Calm Calm - N/A   Clear
4:15 AM 28.4 °F - 28.4 °F 100% 30.23 in 10.0 mi Calm Calm - N/A   Clear
4:34 AM 28.4 °F - 28.4 °F 100% 30.22 in 10.0 mi Calm Calm - N/A   Clear
5:15 AM 26.6 °F - 26.6 °F 100% 30.22 in 10.0 mi Calm Calm - N/A   Clear
5:34 AM 26.6 °F - 26.6 °F 100% 30.23 in 10.0 mi Calm Calm - N/A   Clear
5:55 AM 24.8 °F - 24.8 °F 100% 30.23 in 10.0 mi Calm Calm - N/A   Clear
6:15 AM 24.8 °F - 24.8 °F 100% 30.24 in 10.0 mi Calm Calm - N/A   Clear
6:34 AM 26.6 °F - 26.6 °F 100% 30.25 in 10.0 mi Calm Calm - N/A   Clear
6:55 AM 26.6 °F - 26.6 °F 100% 30.25 in 10.0 mi Calm Calm - N/A   Clear
7:15 AM 23.0 °F - 23.0 °F 100% 30.26 in 10.0 mi Calm Calm - N/A   Clear
7:35 AM 24.8 °F 20.5 °F 24.8 °F 100% 30.26 in 10.0 mi WNW 3.5 mph - N/A   Clear
7:55 AM 26.6 °F - 26.6 °F 100% 30.27 in 10.0 mi Calm Calm - N/A   Clear
8:14 AM 24.8 °F - 24.8 °F 100% 30.28 in 10.0 mi Calm Calm - N/A   Clear
8:35 AM 24.8 °F - 24.8 °F 100% 30.29 in 10.0 mi Calm Calm - N/A   Clear
8:55 AM 26.6 °F - 26.6 °F 100% 30.30 in 10.0 mi Calm Calm - N/A   Clear
9:14 AM 26.6 °F - 26.6 °F 100% 30.31 in 10.0 mi Calm Calm - N/A   Clear
9:35 AM 28.4 °F - 28.4 °F 100% 30.31 in 10.0 mi Calm Calm - N/A   Clear
9:55 AM 30.2 °F - 30.2 °F 100% 30.31 in 10.0 mi Calm Calm - N/A   Clear
10:15 AM 32.0 °F - 32.0 °F 100% 30.32 in 10.0 mi Calm Calm - N/A   Clear
10:35 AM 33.8 °F - 33.8 °F 100% 30.32 in 10.0 mi Calm Calm - N/A   Clear
10:55 AM 35.6 °F - 33.8 °F 93% 30.33 in 10.0 mi Calm Calm - N/A   Clear
11:14 AM 37.4 °F - 33.8 °F 87% 30.33 in 10.0 mi Calm Calm - N/A   Clear
11:35 AM 41.0 °F 38.0 °F 33.8 °F 76% 30.33 in 10.0 mi East 4.6 mph - N/A   Clear
11:55 AM 42.8 °F 39.3 °F 33.8 °F 70% 30.33 in 10.0 mi ESE 5.8 mph - N/A   Clear
12:14 PM 42.8 °F - 33.8 °F 70% 30.33 in 10.0 mi Calm Calm - N/A   Clear
12:35 PM 44.6 °F 43.1 °F 32.0 °F 61% 30.34 in 10.0 mi East 3.5 mph - N/A   Clear
12:55 PM 44.6 °F - 32.0 °F 61% 30.34 in 10.0 mi Calm Calm - N/A   Clear
1:14 PM 44.6 °F - 32.0 °F 61% 30.33 in 10.0 mi Calm Calm - N/A   Clear
1:35 PM 46.4 °F 45.2 °F 32.0 °F 57% 30.33 in 10.0 mi South 3.5 mph - N/A   Clear
1:55 PM 46.4 °F 42.4 °F 32.0 °F 57% 30.32 in 10.0 mi SE 8.1 mph - N/A   Clear
2:14 PM 46.4 °F 43.5 °F 32.0 °F 57% 30.31 in 10.0 mi SE 5.8 mph - N/A   Clear
2:35 PM 46.4 °F - 32.0 °F 57% 30.31 in 10.0 mi Calm Calm - N/A   Clear
2:55 PM 48.2 °F - 32.0 °F 54% 30.31 in 10.0 mi South 4.6 mph - N/A   Clear
3:35 PM 48.2 °F - 30.2 °F 50% 30.31 in 10.0 mi Calm Calm - N/A   Clear
4:15 PM 48.2 °F - 30.2 °F 50% 30.30 in 10.0 mi Calm Calm - N/A   Clear
4:35 PM 50.0 °F - 32.0 °F 50% 30.31 in 10.0 mi Calm Calm - N/A   Clear
4:54 PM 48.2 °F - 30.2 °F 50% 30.30 in 10.0 mi Calm Calm - N/A   Clear
5:35 PM 48.2 °F - 32.0 °F 54% 30.29 in 10.0 mi Calm Calm - N/A   Clear
5:54 PM 46.4 °F 45.2 °F 32.0 °F 57% 30.29 in 10.0 mi SSE 3.5 mph - N/A   Clear
6:15 PM 46.4 °F - 32.0 °F 57% 30.30 in 10.0 mi Calm Calm - N/A   Clear
6:35 PM 44.6 °F - 32.0 °F 61% 30.30 in 10.0 mi Calm Calm - N/A   Clear
6:54 PM 41.0 °F - 32.0 °F 70% 30.30 in 10.0 mi Calm Calm - N/A   Clear
7:15 PM 33.8 °F - 32.0 °F 93% 30.31 in 10.0 mi Calm Calm - N/A   Clear
7:35 PM 35.6 °F - 32.0 °F 87% 30.31 in 10.0 mi Calm Calm - N/A   Clear
7:54 PM 32.0 °F - 32.0 °F 100% 30.31 in 10.0 mi Calm Calm - N/A   Clear
8:15 PM 32.0 °F - 30.2 °F 93% 30.31 in 10.0 mi Calm Calm - N/A   Clear
8:35 PM 32.0 °F - 32.0 °F 100% 30.31 in 10.0 mi Calm Calm - N/A   Clear
8:54 PM 32.0 °F - 32.0 °F 100% 30.31 in 10.0 mi Calm Calm - N/A   Clear
9:15 PM 32.0 °F - 32.0 °F 100% 30.31 in 10.0 mi Calm Calm - N/A   Clear
9:35 PM 30.2 °F - 30.2 °F 100% 30.31 in 10.0 mi Calm Calm - N/A   Clear
9:55 PM 30.2 °F 26.7 °F 30.2 °F 100% 30.32 in 10.0 mi WNW 3.5 mph - N/A   Clear
10:15 PM 28.4 °F - 28.4 °F 100% 30.32 in 10.0 mi Calm Calm - N/A   Clear
10:34 PM 30.2 °F - 30.2 °F 100% 30.33 in 10.0 mi Calm Calm - N/A   Clear
10:55 PM 30.2 °F - 30.2 °F 100% 30.32 in 10.0 mi Calm Calm - N/A   Clear
11:15 PM 28.4 °F - 28.4 °F 100% 30.32 in 10.0 mi Calm Calm - N/A   Clear
11:24 PM 30.2 °F - 30.2 °F 100% 30.32 in 10.0 mi Calm Calm - N/A   Clear
11:45 PM 26.6 °F - 26.6 °F 100% 30.32 in 10.0 mi Calm Calm - N/A   Clear